Miscellaneous Local Product
Issued by NWS Hastings, NE

Home | Current Version | Previous Version | Text Only | Print | Product List | Glossary Off
Versions: 1 2 3 4 5 6 7 8 9 10 11 12 13 14 15 16 17 18 19 20 21 22 23 24 25 26 27 28 29 30 31 32 33 34 35 36 37 38 39 40 41 42 43 44 45 46 47 48 49 50

000
AXUS43 KGID 250502
MISGRI

GID CWA HOURLY WEATHER ROUNDUP
NATIONAL WEATHER SERVICE HASTINGS NE
1100 PM CST WED DEC 24 2014

NOTE: "FAIR" INDICATES FEW OR NO CLOUDS BELOW 12,000 FEET WITH NO
SIGNIFICANT WEATHER AND/OR OBSTRUCTIONS TO VISIBILITY.

...SOUTH CENTRAL NEBRASKA...

CITY           SKY/WX    TMP DP  RH WIND       PRES   REMARKS
GRAND ISLAND   PTCLDY    34  21  59 S13       29.59F WCI  25
HASTINGS       MOCLDY    33  20  58 S10       29.59F WCI  25
KEARNEY        MOCLDY    30  21  69 S12       29.59F WCI  21
ORD            CLOUDY    29  23  78 E3        29.53F
YORK           PTCLDY    32  25  74 S10       29.62F WCI  24
AURORA         PTCLDY    31  23  72 S12       29.60F WCI  22
LEXINGTON      MOCLDY    34  25  71 W3        29.56F
HOLDREGE       MOCLDY    32  21  65 SW7       29.59F WCI  25
HEBRON         CLEAR     33  24  68 S14       29.65F WCI  23

...NEBRASKA PANHANDLE...

CITY           SKY/WX    TMP DP  RH WIND       PRES   REMARKS
CHADRON        CLOUDY    26  21  81 S7        29.45S WCI  18
ALLIANCE       CLOUDY    32  25  75 CALM      29.46S
SCOTTSBLUFF    CLOUDY    33  26  75 SE5       29.47F WCI  29
SIDNEY         CLOUDY    29  22  75 SW6       29.47F WCI  23

...WESTERN AND NORTH CENTRAL NEBRASKA...

CITY           SKY/WX    TMP DP  RH WIND       PRES   REMARKS
VALENTINE      CLOUDY    31  26  82 SW3       29.46F
AINSWORTH      CLOUDY    32  26  76 SW10      29.48F WCI  24
ONEILL         MOCLDY    29  25  83 S8        29.51F WCI  21
BROKEN BOW     CLOUDY    32  25  75 SW8       29.53F WCI  25
IMPERIAL       CLOUDY    35  21  56 SW9       29.52F WCI  28
NORTH PLATTE   MOCLDY    30  23  75 CALM      29.52F
MCCOOK         CLOUDY    32  23  69 SW8       29.56F WCI  25

...EASTERN NEBRASKA...

CITY           SKY/WX    TMP DP  RH WIND       PRES   REMARKS
NORFOLK        CLEAR     30  23  75 S14       29.57F WCI  19
SO SIOUX CITY  PTCLDY    28  26  92 S10       29.63F WCI  19
TEKAMAH        PTCLDY    30  27  88 S9        29.66F WCI  22
COLUMBUS       CLEAR     30  21  69 S8        29.62F WCI  23
ALBION         PTCLDY    30  24  78 S5        29.57F WCI  25
OMAHA EPPLEY   CLEAR     29  27  92 S13       29.70F WCI  19
OFFUTT AFB     CLEAR     28  26  92 SE8       29.69F WCI  20
MILLARD        CLEAR     28  26  91 SE6       29.69F WCI  21
LINCOLN        CLEAR     27  24  89 SE6       29.67F WCI  20
NEBRASKA CITY  CLEAR     29  29 100 S12       29.71F WCI  19
BEATRICE       PTCLDY    30  26  85 S9        29.68F WCI  22
FALLS CITY     CLEAR     30  27  88 S9        29.74F WCI  22

...NORTHERN KANSAS...

CITY           SKY/WX    TMP DP  RH WIND       PRES   REMARKS
GOODLAND       CLOUDY    31  20  63 S12       29.56F WCI  22
HILL CITY      CLOUDY    34  16  47 SW9       29.63F WCI  27
NORTON         CLEAR     34  18  51 S6        29.59F WCI  29
PHILLIPSBURG   CLEAR     36  21  55 W5        29.64S WCI  32
SMITH CENTER   CLEAR     30  21  69 S8        29.65S WCI  23
BELOIT         CLEAR     32  25  74 S10       29.67F WCI  24
HAYS           MOCLDY    34  16  47 S13       29.66F WCI  25
RUSSELL        PTCLDY    35  23  61 S17       29.67F WCI  25
CONCORDIA      CLEAR     33  24  69 S17       29.68F WCI  22
SALINA         CLEAR     34  25  69 S10       29.74S WCI  26
TOPEKA         CLEAR     33  29  85 S7        29.79F WCI  27



USA.gov is the U.S. government's official web portal to all federal, state and local government web resources and services.